Weather observations for the past three days for
Corsicana, Campbell Field-Corsicana Municipal Airport
Metric (Imperial)
Date Time (cdt) Wind (kph) Vis. (km) Weather Sky Cond. Temperature (ºC) Relative Humidity Wind Chill (°C) Heat Index (°C) Pressure Precipitation (cm)
Air Dwpt 6 hour altimeter (cm) sea level (mb) 1 hr 3 hr 6 hr
Max. Min.
24 23:53 SE 9 14.48 Fair CLR 22.8 21.1 90% 75.74 1009.2
24 22:53 E 15 9.66 Thunderstorm in Vicinity Rain Fog/Mist BKN044 BKN080 OVC100 22.8 20.6 87% 75.77 1009.4 0.15
24 21:53 E 9 16.09 Mostly Cloudy FEW027 FEW035 BKN110 23.3 20.6 85% 75.67 1008.2 0.03 0.25
24 20:53 SW 26 G 59 4.83 Thunderstorm Heavy Rain BKN038 BKN070 OVC100 27.8 25 85% 32 75.51 1006.1 0.23
24 19:53 NE 7 6.44 Fog/Mist BKN045 BKN050 26.7 24.4 87% 30 75.41 1005.0
24 18:53 SE 11 8.05 Thunderstorm in Vicinity Haze BKN038 28.9 25 32.8 26.1 80% 34 75.44 1005.1 0.03
24 17:53 E 11 9.66 Overcast with Haze OVC038 27.8 23.9 79% 32 75.41 1004.8
24 16:53 N 17 8.05 Thunderstorm in Vicinity Haze BKN036 BKN048 OVC060 26.7 23.3 82% 29 75.57 1006.9 0.03
24 15:53 SE 9 9.66 Thunderstorm in Vicinity Haze BKN040 OVC047 30.6 24.4 70% 36 75.51 1006.0
24 14:53 S 26 9.66 Mostly Cloudy with Haze BKN037 31.7 24.4 65% 38 75.54 1006.3
24 13:53 S 24 G 37 9.66 Overcast with Haze OVC033 32.2 25 66% 39 75.59 1007.1
24 12:53 S 28 G 35 9.66 Overcast with Haze SCT029 OVC036 31.1 23.9 31.7 25 66% 37 75.64 1007.7
24 11:53 S 17 9.66 Overcast with Haze FEW022 BKN029 OVC036 29.4 23.9 72% 34 75.69 1008.4
24 10:53 S 24 G 37 9.66 Overcast with Haze BKN023 OVC029 28.3 23.3 74% 32 75.67 1008.2
24 09:53 S 22 G 35 9.66 Overcast with Haze FEW014 BKN023 OVC029 27.2 23.3 79% 30 75.69 1008.5
24 08:53 S 17 9.66 Overcast with Haze BKN014 OVC019 26.1 23.3 85% 28 75.69 1008.6
24 07:53 SE 15 9.66 Fog/Mist OVC025 25.6 23.3 87% 27 75.69 1008.4
24 06:53 SE 9 8.05 Fog/Mist FEW017 OVC025 25 22.8 25.6 25 88% 26 75.64 1007.8
24 05:53 S 15 11.27 Overcast FEW015 OVC024 25 22.8 88% 26 75.59 1007.1
24 04:53 S 17 11.27 Overcast BKN015 OVC021 25 22.8 88% 26 75.54 1006.7
24 03:53 S 19 12.87 Overcast OVC017 25.6 22.8 85% 27 75.54 1006.6
24 02:53 S 22 G 37 12.87 Overcast OVC012 25.6 23.3 87% 27 75.57 1006.7
24 01:53 S 26 12.87 Overcast SCT010 OVC017 25.6 23.3 87% 27 75.54 1006.6
24 00:53 S 20 11.27 Overcast FEW011 OVC020 25.6 23.9 26.7 24.4 90% 27 75.57 1007.0
23 23:53 S 20 11.27 Mostly Cloudy FEW010 BKN019 25.6 23.9 90% 27 75.62 1007.7
23 22:53 S 22 11.27 Fair CLR 26.1 23.9 88% 28 75.64 1007.8
23 21:53 SE 22 9.66 Fog/Mist CLR 26.1 23.9 88% 28 75.62 1007.5
23 20:53 SE 24 11.27 Partly Cloudy FEW021 SCT031 26.7 23.9 85% 29 75.62 1007.6
23 19:53 SE 6 9.66 Fog/Mist OVC035 24.4 22.2 88% 25 75.62 1007.5
23 18:53 E 13 11.27 A Few Clouds FEW043 24.4 21.1 25 22.8 82% 25 75.59 1007.3 1.09
23 17:53 N 13 11.27 Thunderstorm FEW050 BKN065 OVC100 23.3 20.6 85% 75.72 1009.1 0.56
23 16:53 W 24 G 35 4.02 Thunderstorm Light Rain Fog/Mist FEW028 SCT100 SCT120 24.4 22.2 88% 25 75.82 1010.3 0.3
23 15:53 SW 13 8.05 Thunderstorm Fog/Mist SCT110 24.4 22.2 88% 25 75.74 1009.4 0.03 0.23
23 14:53 SE 22 16.09 Thunderstorm in Vicinity Light Rain CLR 22.8 20 84% 75.74 1009.5 0.08
23 13:53 S 35 G 48 14.48 Light Rain and Breezy FEW043 SCT090 BKN110 23.3 19.4 79% 75.77 1009.5 0.13
23 12:53 SE 33 G 50 16.09 Mostly Cloudy and Breezy FEW040 SCT095 BKN110 24.4 20 26.1 23.9 77% 25 75.67 1008.2 0.13 0.2
23 11:53 S 24 G 41 11.27 Thunderstorm in Vicinity Light Rain FEW080 BKN110 25 22.2 85% 26 75.9 1011.4 0.08
23 10:53 S 41 G 59 11.27 Light Rain and Breezy SCT015 BKN037 BKN110 25.6 23.3 87% 27 75.87 1011.0
23 09:53 S 24 G 37 14.48 Overcast BKN015 BKN021 OVC029 26.1 23.3 85% 28 75.92 1011.5
23 08:53 S 19 12.87 Overcast BKN016 OVC020 26.1 23.3 85% 28 75.87 1010.8
23 07:53 S 20 9.66 Fog/Mist FEW010 OVC030 25.6 23.3 87% 27 75.79 1010.1
23 06:53 S 17 8.05 Fog/Mist BKN012 BKN017 OVC031 25 23.3 25 22.8 90% 26 75.77 1009.8
23 05:53 S 13 9.66 Fog/Mist OVC011 24.4 22.8 91% 24 75.79 1009.7
23 04:53 S 17 9.66 Fog/Mist FEW007 BKN015 OVC019 23.9 22.2 90% 23 75.74 1009.2
23 03:53 S 17 11.27 Overcast FEW006 OVC029 23.3 21.7 91% 75.74 1009.1
23 02:53 S 15 16.09 Overcast FEW011 OVC041 22.8 21.1 90% 75.79 1009.8
23 01:53 S 19 16.09 Partly Cloudy FEW047 SCT085 24.4 20.6 79% 25 75.82 1010.0
23 00:53 S 17 16.09 A Few Clouds FEW050 FEW090 23.9 20 27.8 22.2 79% 24 75.82 1010.3 0.08 0.79
22 23:53 S 19 G 37 16.09 Thunderstorm in Vicinity Rain FEW055 BKN095 OVC110 23.3 19.4 79% 75.82 1010.1 0.08
22 22:53 S 33 G 57 2.82 Thunderstorm Light Rain Fog/Mist and Breezy SCT033 BKN070 BKN095 22.2 20 87% 75.79 1009.9 0.61
22 21:53 S 24 16.09 Fair CLR 23.9 17.2 66% 25 75.64 1008.1 0.03
22 20:53 S 26 G 48 16.09 A Few Clouds FEW090 24.4 20 77% 25 75.54 1006.7
22 19:53 S 30 G 43 11.27 Thunderstorm Light Rain FEW120 27.2 24.4 85% 31 75.82 1010.1 0.03
22 18:53 SE 7 14.48 Partly Cloudy FEW038 SCT110 27.8 24.4 32.2 27.8 82% 32 75.67 1008.2
22 17:53 S 11 12.87 Light Rain FEW055 SCT070 SCT100 29.4 23.3 70% 34 75.69 1008.5
22 16:53 S 19 12.87 Overcast FEW040 BKN049 OVC080 30.6 23.9 67% 36 75.59 1007.0
22 15:53 S 13 14.48 Overcast SCT037 BKN048 OVC060 31.1 23.3 63% 36 75.69 1008.4
22 14:53 S 28 G 43 12.87 Partly Cloudy FEW038 SCT055 31.7 23.9 63% 37 75.64 1007.7
22 13:53 S 28 G 43 11.27 Overcast FEW033 OVC050 31.1 22.8 61% 35 75.72 1009.0
22 12:53 S 24 G 39 9.66 Overcast with Haze FEW027 FEW034 OVC045 31.1 23.9 31.7 25 66% 37 75.74 1009.2
22 11:53 S 26 G 35 9.66 Overcast with Haze FEW024 SCT030 OVC038 30.6 23.3 65% 35 75.82 1010.3
22 10:53 S 24 8.05 Overcast with Haze FEW020 BKN027 OVC033 28.3 23.3 74% 32 75.82 1010.2
22 09:53 S 28 G 41 8.05 Overcast with Haze BKN015 BKN023 OVC028 28.3 23.9 77% 32 75.84 1010.4
22 08:53 S 28 G 39 6.44 Overcast with Haze BKN012 OVC018 27.2 23.9 82% 30 75.87 1010.7
22 07:53 S 19 4.83 Overcast with Haze OVC024 26.1 23.3 85% 28 75.82 1010.3
22 06:53 SE 11 4.83 Fog/Mist OVC028 25 23.3 27.8 25 90% 26 75.84 1010.3
22 05:53 S 9 6.44 Fog/Mist BKN029 25 22.8 88% 26 75.79 1009.8
22 04:53 S 9 8.05 Fog/Mist OVC028 25 22.8 88% 26 75.79 1009.7
22 03:53 S 13 9.66 Overcast with Haze OVC026 26.1 22.8 82% 28 75.74 1009.3
22 02:53 S 17 11.27 Overcast OVC029 26.7 23.3 82% 29 75.74 1009.1
22 01:53 S 20 11.27 Overcast OVC028 27.2 23.9 82% 30 75.77 1009.4
22 00:53 S 22 11.27 Overcast OVC030 27.8 23.9 30.6 27.8 79% 32 75.79 1009.7
Date Time (cdt) Wind (kph) Vis. (km) Weather Sky Cond. Air Dwpt Max. Min. Relative Humidity Wind Chill (°C) Heat Index (°C) altimeter (cm) sea level (mb) 1 hr 3 hr 6 hr
6 hour
Temperature (ºC) Pressure Precipitation (cm)